| time (UTC) | temp F | wind direction | speed MPH | gust MPH | rain 1hr in | rain 24hr in | rain mn in | humidity % | barometer mb |
| 20260504043111 | 58 | 187 | 0.0 | 3.0 | 0.00 | 0.00 | 0.00 | 37 | 1009.6 |
| 20260504040110 | 57 | 185 | 0.0 | 0.0 | 0.00 | 0.00 | 0.00 | 37 | 1009.6 |
| 20260504023110 | 58 | 193 | 0.0 | 0.0 | 0.00 | 0.00 | 0.00 | 35 | 1009.6 |
| 20260504013110 | 60 | 175 | 0.0 | 2.0 | 0.00 | 0.00 | 0.00 | 34 | 1009.5 |
| 20260504010110 | 61 | 202 | 0.0 | 4.0 | 0.00 | 0.00 | 0.00 | 33 | 1009.5 |
| 20260504000110 | 63 | 308 | 3.0 | 5.0 | 0.00 | 0.00 | 0.00 | 29 | 1008.4 |
| 20260503230117 | 63 | 284 | 0.0 | 4.0 | 0.00 | 0.00 | 0.00 | 29 | 1009.4 |
| 20260503213117 | 66 | 298 | 3.0 | 8.0 | 0.00 | 0.00 | 0.00 | 24 | 1008.4 |
| 20260503210117 | 67 | 331 | 4.0 | 7.0 | 0.00 | 0.00 | 0.00 | 22 | 1008.4 |
| 20260503203117 | 67 | 314 | 6.0 | 8.0 | 0.00 | 0.00 | 0.00 | 22 | 1008.3 |
| 20260503200117 | 68 | 249 | 7.0 | 11.0 | 0.00 | 0.00 | 0.00 | 20 | 1008.3 |
| 20260503193117 | 68 | 275 | 4.0 | 6.0 | 0.00 | 0.00 | 0.00 | 20 | 1008.3 |
| 20260503190117 | 69 | 264 | 4.0 | 6.0 | 0.00 | 0.00 | 0.00 | 17 | 1007.3 |
| 20260503180136 | 70 | 195 | 4.0 | 8.0 | 0.00 | 0.00 | 0.00 | 19 | 1007.3 |
| 20260503173116 | 71 | 188 | 2.0 | 4.0 | 0.00 | 0.00 | 0.00 | 19 | 1007.3 |
| 20260503170135 | 72 | 213 | 3.0 | 8.0 | 0.00 | 0.00 | 0.00 | 16 | 1007.2 |
| 20260503150116 | 76 | 207 | 7.0 | 10.0 | 0.00 | 0.00 | 0.00 | 15 | 1007.2 |
| 20260503140116 | 76 | 214 | 6.0 | 8.0 | 0.00 | 0.00 | 0.00 | 15 | 1008.2 |
| 20260503120116 | 77 | 120 | 8.0 | 12.0 | 0.00 | 0.00 | 0.00 | 15 | 1009.2 |
| 20260503110117 | 73 | 191 | 7.0 | 11.0 | 0.00 | 0.00 | 0.00 | 19 | 1009.2 |
| 20260503100117 | 73 | 218 | 8.0 | 12.0 | 0.00 | 0.00 | 0.00 | 22 | 1009.2 |
| 20260503090117 | 72 | 243 | 5.0 | 8.0 | 0.00 | 0.00 | 0.00 | 22 | 1010.3 |
| 20260503080117 | 68 | 166 | 3.0 | 5.0 | 0.00 | 0.00 | 0.00 | 25 | 1009.3 |
| 20260503070116 | 61 | 206 | 0.0 | 0.0 | 0.00 | 0.00 | 0.00 | 37 | 1010.5 |
| 20260503060136 | 57 | 322 | 0.0 | 0.0 | 0.00 | 0.00 | 0.00 | 47 | 1010.6 |
| 20260503053116 | 55 | 152 | 0.0 | 0.0 | 0.00 | 0.00 | 0.00 | 50 | 1009.6 |
| 20260503050135 | 54 | 154 | 0.0 | 0.0 | 0.00 | 0.00 | 0.00 | 51 | 1010.7 |